Location: Unspecified
(46.0045°N, 0.0000°E)
Time: 02:51:01
(UTC+00:00)

NOAA 17 - Visible Passes

Search period start: 05 April 2026 00:00
Search period end: 15 April 2026 00:00
Orbit: 797 x 812 km, 98.9° (Epoch: 28 March)

Date Brightness Start Highest point End Pass type
(mag) Time Alt. Az. Time Alt. Az. Time Alt. Az.
5 Apr 7.8 01:55:07 10° ENE 01:56:26 11° E 01:57:46 10° E visible
5 Apr 5.1 03:31:43 10° NNE 03:37:02 80° ESE 03:40:36 21° S visible
6 Apr 5.9 03:06:30 10° NNE 03:11:38 49° E 03:15:04 20° SSE visible
6 Apr 6.2 04:46:47 10° N 04:51:05 26° WNW 04:55:21 10° WSW visible
7 Apr 6.7 02:41:32 10° NE 02:46:07 30° E 02:49:33 15° SSE visible
7 Apr 5.6 04:21:03 10° N 04:25:58 40° WNW 04:30:34 11° SW visible
8 Apr 7.4 02:16:58 10° NE 02:20:32 18° E 02:24:01 10° SE visible
8 Apr 5.1 03:55:31 10° N 04:00:45 66° WNW 04:05:03 15° SSW visible
9 Apr 7.8 01:54:01 10° ENE 01:54:49 10° E 01:55:37 10° E visible
9 Apr 5.2 03:30:08 10° NNE 03:35:26 78° ESE 03:39:31 17° S visible
10 Apr 5.9 03:04:56 10° NNE 03:10:01 47° E 03:14:00 16° SSE visible
10 Apr 6.2 04:45:09 10° N 04:49:31 27° WNW 04:53:50 10° WSW visible
11 Apr 6.8 02:39:58 10° NE 02:44:31 28° E 02:48:28 12° SSE visible
11 Apr 5.6 04:19:26 10° N 04:24:22 42° WNW 04:29:17 10° SW visible
12 Apr 7.4 02:15:28 10° NE 02:18:54 17° E 02:22:18 10° SE visible
12 Apr 5.1 03:53:54 10° N 03:59:09 68° WNW 04:03:58 12° SSW visible
13 Apr 5.2 03:28:32 10° NNE 03:33:49 75° ESE 03:38:26 14° S visible
14 Apr 6.0 03:03:21 10° NNE 03:08:24 45° E 03:12:53 13° S visible
